Weather observations for the past three days for
Salida - Monarch Pass
Imperial (Metric)
Date Time (mdt) Wind (mph) Vis. (mi.) Weather Sky Cond. Temperature (ºF) Relative Humidity Wind Chill (°F) Heat Index (°F) Pressure Precipitation (in)
Air Dwpt 6 hour altimeter (in) sea level (mb) 1 hr 3 hr 6 hr
Max. Min.
04 10:15 W 16 G 23 10.00 Partly Cloudy SCT041 SCT047 51.8 35.6 54% 30.71 0.0
04 09:55 W 23 10.00 Partly Cloudy and Breezy SCT039 SCT044 50 37.4 62% 44 30.7 0.0
04 09:35 W 26 G 30 10.00 Partly Cloudy and Windy SCT044 50 37.4 62% 43 30.69 0.0
04 09:15 W 24 10.00 Fair and Breezy CLR 50 35.6 58% 43 30.69 0.0
04 08:55 W 23 10.00 Partly Cloudy and Breezy SCT041 46.4 35.6 66% 39 30.69 0.0
04 08:35 W 24 10.00 Fair and Breezy CLR 46.4 35.6 66% 39 30.68 0.0
04 08:15 W 25 G 30 10.00 Fair and Breezy CLR 46.4 35.6 66% 38 30.68 0.0
04 07:55 W 21 G 26 10.00 Fair and Breezy CLR 44.6 35.6 71% 37 30.67 0.0
04 07:35 W 24 10.00 Fair and Breezy CLR 44.6 35.6 71% 36 30.66 0.0
04 07:15 W 24 10.00 Fair and Breezy CLR 44.6 33.8 66% 36 30.66 0.0
04 06:55 W 21 10.00 Fair and Breezy CLR 44.6 33.8 66% 37 30.65 0.0
04 06:35 W 20 10.00 Fair CLR 44.6 32 61% 37 30.64 0.0
04 06:15 W 22 10.00 Fair and Breezy CLR 44.6 33.8 66% 37 30.64 0.0
04 05:55 W 25 10.00 Fair and Breezy CLR 44.6 32 61% 36 30.63 0.0
04 05:35 W 24 10.00 Fair and Breezy CLR 44.6 32 61% 36 30.63 0.0
04 05:15 W 21 10.00 Fair and Breezy CLR 44.6 32 61% 37 30.64 0.0
04 04:55 W 22 10.00 Fair and Breezy CLR 44.6 32 61% 37 30.64 0.0
04 04:35 W 22 10.00 Partly Cloudy and Breezy SCT035 44.6 32 61% 37 30.64 0.0
04 04:15 W 21 10.00 Partly Cloudy and Breezy SCT035 44.6 30.2 57% 37 30.64 0.0
04 03:55 W 22 10.00 Fair and Breezy CLR 44.6 28.4 53% 37 30.64 0.0
04 03:35 W 23 10.00 Fair and Breezy CLR 44.6 30.2 57% 37 30.64 0.0
04 03:15 W 25 10.00 Fair and Breezy CLR 44.6 30.2 57% 36 30.63 0.0
04 02:55 W 24 10.00 Fair and Breezy CLR 46.4 28.4 50% 39 30.64 0.0
04 02:35 W 22 10.00 Fair and Breezy CLR 46.4 28.4 50% 39 30.64 0.0
04 02:15 W 28 10.00 Fair and Windy CLR 46.4 28.4 50% 38 30.64 0.0
04 01:55 W 32 10.00 Fair and Windy CLR 46.4 28.4 50% 37 30.64 0.0
04 01:35 W 31 10.00 Fair and Windy CLR 46.4 28.4 50% 38 30.64 0.0
04 01:15 W 31 10.00 Fair and Windy CLR 46.4 28.4 50% 38 30.64 0.0
04 00:55 W 24 G 30 10.00 Fair and Breezy CLR 46.4 28.4 50% 39 30.65 0.0
04 00:35 W 24 10.00 Fair and Breezy CLR 46.4 28.4 50% 39 30.65 0.0
04 00:15 NW 21 10.00 Fair and Breezy CLR 46.4 28.4 50% 39 30.65 0.0
03 23:55 W 23 10.00 Fair and Breezy CLR 46.4 26.6 46% 39 30.66 0.0
03 23:35 W 17 10.00 Fair CLR 48.2 26.6 43% 42 30.66 0.0
03 23:15 W 20 10.00 Fair CLR 48.2 26.6 43% 42 30.66 0.0
03 22:55 W 17 10.00 Fair CLR 48.2 26.6 43% 42 30.66 0.0
03 22:35 W 17 10.00 Fair CLR 50 26.6 40% 45 30.66 0.0
03 22:15 W 16 10.00 Fair CLR 50 26.6 40% 45 30.67 0.0
03 21:55 W 17 10.00 Fair CLR 50 26.6 40% 45 30.67 0.0
03 21:35 W 14 10.00 Fair CLR 50 26.6 40% 45 30.67 0.0
03 21:15 W 17 10.00 Partly Cloudy SCT070 51.8 26.6 38% 30.66 0.0
03 20:55 W 18 10.00 Partly Cloudy SCT070 51.8 26.6 38% 30.66 0.0
03 20:35 W 16 10.00 Partly Cloudy SCT070 53.6 26.6 35% 30.65 0.0
03 20:15 W 13 G 16 10.00 Partly Cloudy SCT070 53.6 26.6 35% 30.64 0.0
03 19:55 W 10 10.00 Fair CLR 53.6 26.6 35% 30.64 0.0
03 19:35 W 16 10.00 Fair CLR 55.4 28.4 36% 30.64 0.0
03 19:15 NW 16 10.00 Fair CLR 57.2 28.4 33% 30.64 0.0
03 18:55 NW 16 G 22 10.00 Fair CLR 59 28.4 31% 30.64 0.0
03 18:35 W 17 10.00 Fair CLR 60.8 28.4 29% 30.64 0.0
03 18:15 W 16 G 23 10.00 Fair CLR 60.8 26.6 27% 30.64 0.0
03 17:55 W 16 G 24 10.00 Partly Cloudy SCT085 60.8 28.4 29% 30.64 0.0
03 17:35 W 20 G 23 10.00 Partly Cloudy SCT085 62.6 30.2 30% 30.64 0.0
03 17:15 W 14 G 28 10.00 Fair CLR 60.8 28.4 29% 30.64 0.0
03 16:55 W 21 G 30 10.00 Fair and Breezy CLR 62.6 28.4 27% 30.64 0.0
03 16:35 W 15 G 30 10.00 Partly Cloudy SCT070 60.8 26.6 27% 30.64 0.0
03 16:15 W 22 G 28 10.00 Partly Cloudy and Breezy SCT070 62.6 28.4 27% 30.64 0.0
03 15:55 W 16 G 23 10.00 Fair CLR 62.6 28.4 27% 30.64 0.0
03 15:35 W 23 G 29 10.00 Partly Cloudy and Breezy SCT060 60.8 30.2 31% 30.64 0.0
03 15:15 NW 22 G 25 10.00 Partly Cloudy and Breezy SCT060 60.8 32 34% 30.65 0.0
03 14:55 W 14 G 22 10.00 Mostly Cloudy BKN050 60.8 32 34% 30.66 0.0
03 14:35 SW 13 G 18 10.00 Mostly Cloudy BKN050 55.4 32 41% 30.66 0.0
03 14:15 SW 21 G 30 10.00 Partly Cloudy and Breezy SCT050 59 32 36% 30.66 0.0
03 13:55 W 20 G 30 10.00 Fair CLR 55.4 32 41% 30.66 0.0
03 13:35 SW 21 G 33 10.00 Fair and Breezy CLR 55.4 32 41% 30.66 0.0
03 13:15 W 21 G 28 10.00 Fair and Breezy CLR 55.4 33.8 44% 30.66 0.0
03 12:55 W 17 G 30 10.00 Fair CLR 55.4 33.8 44% 30.67 0.0
03 12:35 W 20 G 33 10.00 Fair CLR 53.6 33.8 47% 30.67 0.0
03 12:15 W 22 10.00 Fair and Breezy CLR 53.6 33.8 47% 30.68 0.0
03 11:55 W 23 G 30 10.00 Fair and Breezy CLR 51.8 33.8 50% 30.68 0.0
03 11:35 W 26 G 31 10.00 Fair and Windy CLR 51.8 33.8 50% 30.68 0.0
03 11:15 W 25 G 31 10.00 Fair and Breezy CLR 50 33.8 54% 43 30.67 0.0
03 10:55 W 23 G 30 10.00 Fair and Breezy CLR 48.2 33.8 58% 41 30.67 0.0
03 10:35 W 20 G 31 10.00 Partly Cloudy SCT022 46.4 35.6 66% 40 30.67 0.0
03 10:15 W 21 G 29 10.00 Partly Cloudy and Breezy SCT020 46.4 35.6 66% 39 30.66 0.0
03 09:55 W 22 G 32 10.00 Fair and Breezy CLR 44.6 35.6 71% 37 30.66 0.0
03 09:35 W 30 G 35 10.00 Fair and Windy CLR 44.6 33.8 66% 35 30.65 0.0
03 09:15 NW 26 G 35 10.00 Fair and Windy CLR 42.8 33.8 71% 34 30.65 0.0
03 08:55 W 24 G 30 10.00 Fair and Breezy CLR 42.8 35.6 76% 34 30.65 0.0
03 08:35 W 26 G 32 10.00 Fair and Windy CLR 41 35.6 81% 31 30.64 0.0
03 08:15 W 21 G 30 10.00 Fair and Breezy CLR 41 35.6 81% 32 30.64 0.0
03 07:56 W 31 G 35 10.00 Fair and Windy CLR 41 35.6 81% 30 30.63 0.0
03 07:35 W 29 G 33 10.00 Fair and Windy CLR 41 33.8 76% 31 30.62 0.0
03 07:15 W 32 10.00 Fair and Windy CLR 41 33.8 76% 30 30.62 0.0
03 06:55 W 26 G 32 10.00 Fair and Windy CLR 41 33.8 76% 31 30.61 0.0
03 06:35 W 26 G 35 10.00 Fair and Windy CLR 41 33.8 76% 31 30.61 0.0
03 06:15 W 28 10.00 Fair and Windy CLR 41 33.8 76% 31 30.61 0.0
03 05:55 W 26 G 31 10.00 Partly Cloudy and Windy SCT039 39.2 33.8 81% 29 30.6 0.0
03 05:35 W 23 10.00 Fair and Breezy CLR 41 33.8 76% 32 30.61 0.0
03 05:15 W 28 10.00 Fair and Windy CLR 41 33.8 76% 31 30.61 0.0
03 04:55 W 22 10.00 Partly Cloudy and Breezy SCT041 41 33.8 76% 32 30.61 0.0
03 04:35 W 28 10.00 Mostly Cloudy and Windy BKN045 41 33.8 76% 31 30.61 0.0
03 04:15 W 25 G 31 10.00 Mostly Cloudy and Breezy BKN048 42.8 33.8 71% 34 30.62 0.0
03 03:55 W 32 10.00 Mostly Cloudy and Windy BKN050 42.8 33.8 71% 33 30.61 0.0
03 03:35 W 36 10.00 Partly Cloudy and Windy SCT055 42.8 33.8 71% 32 30.61 0.0
03 03:15 W 36 10.00 Fair and Windy CLR 42.8 33.8 71% 32 30.61 0.0
03 02:55 W 29 G 35 10.00 Fair and Windy CLR 42.8 33.8 71% 33 30.62 0.0
03 02:35 W 28 G 31 10.00 Fair and Windy CLR 42.8 33.8 71% 33 30.62 0.0
03 02:15 W 28 10.00 Fair and Windy CLR 42.8 33.8 71% 33 30.63 0.0
03 01:55 W 29 G 35 10.00 Fair and Windy CLR 42.8 33.8 71% 33 30.64 0.0
03 01:35 W 29 10.00 Fair and Windy CLR 42.8 33.8 71% 33 30.64 0.0
03 01:15 W 28 G 33 10.00 Fair and Windy CLR 42.8 33.8 71% 33 30.64 0.0
03 00:55 W 29 10.00 Fair and Windy CLR 44.6 33.8 66% 36 30.64 0.0
03 00:35 W 33 10.00 Fair and Windy CLR 44.6 33.8 66% 35 30.64 0.0
03 00:15 W 32 10.00 Fair and Windy CLR 44.6 33.8 66% 35 30.64 0.0
02 23:55 W 31 10.00 Fair and Windy CLR 44.6 33.8 66% 35 30.65 0.0
02 23:35 W 31 10.00 Fair and Windy CLR 44.6 33.8 66% 35 30.65 0.0
02 23:15 W 31 10.00 Fair and Windy CLR 44.6 33.8 66% 35 30.65 0.0
02 22:55 W 26 10.00 Fair and Windy CLR 44.6 33.8 66% 36 30.66 0.0
02 22:35 W 24 G 28 10.00 Fair and Breezy CLR 44.6 33.8 66% 36 30.66 0.0
02 22:15 W 24 10.00 Fair and Breezy CLR 44.6 33.8 66% 36 30.66 0.0
02 21:55 W 25 10.00 Partly Cloudy and Breezy SCT065 44.6 35.6 71% 36 30.66 0.0
02 21:35 W 20 10.00 Mostly Cloudy BKN065 BKN080 BKN100 44.6 35.6 71% 37 30.68 0.0
02 21:15 W 29 10.00 Partly Cloudy and Windy SCT080 44.6 33.8 66% 36 30.66 0.0
02 20:55 NW 22 10.00 Fair and Breezy CLR 46.4 33.8 62% 39 30.66 0.0
02 20:35 NW 21 10.00 Fair and Breezy CLR 46.4 33.8 62% 39 30.66 0.0
02 20:15 NW 24 10.00 Partly Cloudy and Breezy SCT046 SCT060 SCT070 44.6 35.6 71% 36 30.66 0.0
02 19:55 NW 24 G 28 10.00 Light Drizzle and Breezy SCT033 BKN048 OVC070 46.4 37.4 71% 39 30.66 0.0
02 19:35 NW 29 G 36 10.00 Drizzle and Windy SCT036 BKN045 OVC060 48.2 35.6 62% 40 30.66 0.0
02 19:15 W 25 G 30 10.00 Mostly Cloudy and Breezy SCT050 BKN055 BKN070 50 33.8 54% 43 30.66 0.0
02 18:55 NW 30 G 39 10.00 Partly Cloudy and Windy SCT100 50 33.8 54% 43 30.65 0.0
02 18:35 W 26 G 37 10.00 Fair and Windy CLR 51.8 33.8 50% 30.65 0.0
02 18:15 NW 22 G 32 10.00 Partly Cloudy and Breezy SCT060 53.6 32 44% 30.64 0.0
02 17:55 W 25 G 30 10.00 Partly Cloudy and Breezy SCT050 55.4 32 41% 30.65 0.0
02 17:35 W 16 G 26 10.00 Partly Cloudy SCT055 SCT070 59 32 36% 30.65 0.0
02 17:15 W 18 10.00 Mostly Cloudy BKN055 BKN070 59 32 36% 30.64 0.0
02 16:55 W 23 G 30 10.00 Overcast and Breezy OVC055 57.2 32 39% 30.65 0.0
02 16:35 SW 13 G 18 10.00 Mostly Cloudy SCT055 BKN070 BKN080 59 32 36% 30.65 0.0
02 16:15 W 13 G 25 10.00 Partly Cloudy SCT050 SCT065 SCT075 59 32 36% 30.66 0.0
02 15:55 W 17 G 21 10.00 Partly Cloudy SCT050 SCT080 59 32 36% 30.66 0.0
02 15:35 W 17 G 28 10.00 Mostly Cloudy SCT050 BKN075 57.2 32 39% 30.67 0.0
02 15:15 SW 20 G 28 10.00 Overcast BKN049 OVC065 59 32 36% 30.67 0.0
02 14:55 W 21 10.00 Mostly Cloudy and Breezy SCT049 BKN065 BKN075 55.4 32 41% 30.68 0.0
02 14:35 W 16 G 26 10.00 Mostly Cloudy SCT050 SCT065 BKN075 55.4 32 41% 30.69 0.0
02 14:15 NW 17 G 23 10.00 Mostly Cloudy BKN050 BKN070 55.4 33.8 44% 30.69 0.0
02 13:55 W 18 G 26 10.00 Mostly Cloudy SCT050 SCT060 BKN070 57.2 32 39% 30.69 0.0
02 13:35 W 17 G 24 10.00 Mostly Cloudy SCT048 SCT055 BKN070 57.2 33.8 41% 30.69 0.0
02 13:15 NW 21 G 26 10.00 Mostly Cloudy and Breezy BKN050 BKN065 55.4 33.8 44% 30.71 0.0
02 12:55 W 16 G 30 10.00 Partly Cloudy SCT048 SCT055 55.4 32 41% 30.71 0.0
02 12:35 NW 21 G 25 10.00 Partly Cloudy and Breezy SCT046 55.4 32 41% 30.71 0.0
02 12:15 W 15 G 30 10.00 Fair CLR 53.6 32 44% 30.72 0.0
02 11:55 NW 22 G 35 10.00 Fair and Breezy CLR 51.8 32 47% 30.73 0.0
02 11:35 W 20 G 32 10.00 Partly Cloudy SCT035 51.8 33.8 50% 30.73 0.0
02 11:15 W 26 G 31 10.00 Partly Cloudy and Windy SCT035 50 33.8 54% 43 30.72 0.0
02 10:55 W 23 G 30 10.00 Fair and Breezy CLR 50 33.8 54% 44 30.72 0.0
02 10:35 W 23 G 29 10.00 Fair and Breezy CLR 48.2 35.6 62% 41 30.72 0.0
02 10:15 W 23 G 32 10.00 Fair and Breezy CLR 46.4 33.8 62% 39 30.72 0.0
02 09:55 W 24 G 31 10.00 Fair and Breezy CLR 46.4 33.8 62% 39 30.72 0.0
02 09:35 W 24 G 31 10.00 Fair and Breezy CLR 44.6 33.8 66% 36 30.72 0.0
02 09:15 NW 24 10.00 Fair and Breezy CLR 44.6 33.8 66% 36 30.71 0.0
02 08:55 NW 24 10.00 Fair and Breezy CLR 42.8 35.6 76% 34 30.71 0.0
02 08:35 W 25 10.00 Fair and Breezy CLR 42.8 35.6 76% 34 30.71 0.0
02 08:15 NW 26 10.00 Fair and Windy CLR 41 35.6 81% 31 30.7 0.0
02 07:55 NW 26 10.00 Fair and Windy CLR 41 33.8 76% 31 30.69 0.0
02 07:35 NW 29 10.00 Fair and Windy CLR 41 33.8 76% 31 30.69 0.0
02 07:15 NW 26 10.00 Fair and Windy CLR 41 32 70% 31 30.69 0.0
02 06:55 NW 24 10.00 Fair and Breezy CLR 41 32 70% 32 30.68 0.0
02 06:35 W 23 10.00 Fair and Breezy CLR 41 32 70% 32 30.68 0.0
02 06:15 W 23 10.00 Fair and Breezy CLR 41 32 70% 32 30.68 0.0
02 05:55 W 23 10.00 Fair and Breezy CLR 41 32 70% 32 30.68 0.0
02 05:35 NW 23 10.00 Fair and Breezy CLR 41 32 70% 32 30.68 0.0
02 05:15 NW 21 10.00 Fair and Breezy CLR 41 32 70% 32 30.69 0.0
02 04:55 W 18 10.00 Fair CLR 41 32 70% 33 30.69 0.0
02 04:35 W 20 10.00 Fair CLR 41 32 70% 33 30.69 0.0
02 04:15 W 18 10.00 Fair CLR 41 32 70% 33 30.69 0.0
02 03:55 W 18 10.00 Fair CLR 41 32 70% 33 30.69 0.0
02 03:35 W 22 10.00 Fair and Breezy CLR 42.8 32 66% 34 30.69 0.0
02 03:15 NW 22 10.00 Fair and Breezy CLR 42.8 32 66% 34 30.69 0.0
02 02:55 NW 22 10.00 Mostly Cloudy and Breezy BKN036 42.8 32 66% 34 30.7 0.0
02 02:35 NW 17 10.00 Mostly Cloudy BKN036 BKN042 42.8 33.8 71% 35 30.71 0.0
02 02:15 NW 20 10.00 Partly Cloudy SCT033 SCT041 SCT050 42.8 32 66% 35 30.71 0.0
02 01:55 NW 20 10.00 Partly Cloudy SCT035 SCT041 SCT050 42.8 33.8 71% 35 30.72 0.0
02 01:35 NW 20 10.00 Partly Cloudy SCT050 42.8 33.8 71% 35 30.72 0.0
02 01:15 NW 21 10.00 Partly Cloudy and Breezy SCT050 42.8 33.8 71% 35 30.72 0.0
02 00:55 NW 20 10.00 Fair CLR 44.6 33.8 66% 37 30.71 0.0
02 00:35 NW 20 10.00 Fair CLR 44.6 35.6 71% 37 30.71 0.0
02 00:15 NW 21 10.00 Fair and Breezy CLR 44.6 35.6 71% 37 30.71 0.0
01 23:55 W 20 10.00 Partly Cloudy SCT044 SCT050 44.6 35.6 71% 37 30.71 0.0
01 23:35 W 16 G 20 10.00 Partly Cloudy SCT044 SCT050 44.6 35.6 71% 38 30.72 0.0
01 23:15 W 17 10.00 Mostly Cloudy SCT030 SCT038 BKN044 44.6 35.6 71% 38 30.72 0.0
01 22:55 NW 18 10.00 Mostly Cloudy SCT030 BKN040 BKN047 46.4 35.6 66% 40 30.72 0.0
01 22:35 W 14 10.00 Mostly Cloudy SCT030 SCT042 BKN060 46.4 35.6 66% 41 30.72 0.0
01 22:15 NW 20 10.00 Mostly Cloudy SCT038 SCT045 BKN070 46.4 35.6 66% 40 30.72 0.0
01 21:55 W 18 10.00 Mostly Cloudy SCT043 SCT050 BKN070 46.4 35.6 66% 40 30.72 0.0
01 21:35 NW 16 10.00 Mostly Cloudy SCT047 BKN055 BKN070 46.4 35.6 66% 40 30.72 0.0
01 21:15 NW 15 10.00 Mostly Cloudy BKN050 BKN065 46.4 35.6 66% 41 30.71 0.0
01 20:55 NW 18 10.00 Mostly Cloudy SCT048 BKN065 48.2 35.6 62% 42 30.71 0.0
01 20:15 NW 21 10.00 Overcast and Breezy SCT050 BKN065 OVC075 48.2 35.6 62% 42 30.69 0.0
01 19:55 NW 20 10.00 Overcast SCT050 BKN065 OVC090 48.2 35.6 62% 42 30.69 0.0
01 19:35 NW 23 10.00 Overcast and Breezy SCT055 OVC090 48.2 35.6 62% 41 30.69 0.0
01 19:15 NW 23 G 33 10.00 Overcast and Breezy BKN055 OVC075 50 33.8 54% 44 30.69 0.0
01 18:55 NW 23 G 29 10.00 Mostly Cloudy and Breezy BKN050 BKN070 BKN080 53.6 33.8 47% 30.69 0.0
01 18:35 W 14 G 22 10.00 Overcast BKN050 BKN065 OVC080 53.6 33.8 47% 30.69 0.0
01 18:15 NW 24 G 32 10.00 Mostly Cloudy and Breezy SCT046 BKN049 BKN070 53.6 33.8 47% 30.69 0.0
01 17:55 NW 23 G 32 10.00 Partly Cloudy and Breezy SCT049 SCT080 SCT090 53.6 33.8 47% 30.68 0.0
01 17:35 NW 24 G 30 10.00 Fair and Breezy CLR 55.4 33.8 44% 30.67 0.0
01 17:15 NW 25 G 30 10.00 Partly Cloudy and Breezy SCT050 57.2 32 39% 30.68 0.0
01 16:55 NW 24 G 30 10.00 Fair and Breezy CLR 57.2 33.8 41% 30.68 0.0
01 16:35 NW 25 G 33 10.00 Partly Cloudy and Breezy SCT050 57.2 32 39% 30.68 0.0
01 16:15 W 17 G 33 10.00 Fair CLR 57.2 32 39% 30.69 0.0
01 15:55 NW 20 G 33 10.00 Partly Cloudy SCT050 SCT060 57.2 32 39% 30.69 0.0
01 15:35 W 24 G 31 10.00 Overcast and Breezy BKN048 OVC050 53.6 33.8 47% 30.69 0.0
01 15:15 W 21 G 31 10.00 Overcast and Breezy BKN047 OVC060 55.4 32 41% 30.7 0.0
01 14:55 W 23 G 32 10.00 Partly Cloudy and Breezy SCT047 SCT060 53.6 33.8 47% 30.71 0.0
01 14:35 W 20 G 39 10.00 Partly Cloudy SCT043 SCT049 SCT060 55.4 33.8 44% 30.71 0.0
01 14:15 W 22 G 33 10.00 Mostly Cloudy and Breezy SCT050 BKN060 53.6 33.8 47% 30.72 0.0
01 13:55 NW 28 G 35 10.00 Mostly Cloudy and Windy BKN060 53.6 33.8 47% 30.72 0.0
01 13:35 NW 28 G 41 10.00 Fair and Windy CLR 51.8 32 47% 30.72 0.0
01 13:15 W 30 G 37 10.00 Fair and Windy CLR 51.8 32 47% 30.71 0.0
01 12:55 NW 28 G 33 10.00 Partly Cloudy and Windy SCT032 51.8 32 47% 30.72 0.0
01 12:35 W 18 G 26 10.00 Partly Cloudy SCT032 50 35.6 58% 44 30.73 0.0
01 12:15 W 23 G 32 10.00 Partly Cloudy and Breezy SCT028 SCT034 50 35.6 58% 44 30.73 0.0
01 11:55 NW 22 G 29 10.00 Partly Cloudy and Breezy SCT026 48.2 35.6 62% 41 30.73 0.0
01 11:35 W 20 G 26 10.00 Partly Cloudy SCT018 SCT026 46.4 37.4 71% 40 30.73 0.0
01 11:15 W 18 G 28 10.00 Mostly Cloudy SCT007 BKN012 44.6 42.8 93% 37 30.73 0.0
01 10:55 W 16 G 23 10.00 Mostly Cloudy BKN007 BKN013 44.6 42.8 93% 38 30.72 0.0
01 10:35 NW 24 G 28 10.00 Overcast and Breezy OVC005 42.8 42.8 100% 34 30.72 0.0
Date Time (mdt) Wind (mph) Vis. (mi.) Weather Sky Cond. Air Dwpt Max. Min. Relative Humidity Wind Chill (°F) Heat Index (°F) altimeter (in) sea level (mb) 1 hr 3 hr 6 hr
6 hour
Temperature (ºF) Pressure Precipitation (in)